Akron, CO

10:37 AM MDT on July 20, 2017 (GMT -0600)
Akron-Washington County

Weather History for KAKO - March, 2015

Change the Weather History Date:

Wednesday, March 18, 2015

  Actual Average Record
Temperature  
Mean Temperature 48 °F 40 °F  
Max Temperature 65 °F 53 °F 80 °F (2017)
Min Temperature 31 °F 27 °F -5 °F (1943)
Degree Days  
Heating Degree Days 17    
Month to date heating degree days 419  
Cooling Degree Days 0    
Month to date cooling degree days 0  
Moisture  
Dew Point 23 °F    
Average Humidity 42    
Maximum Humidity 58    
Minimum Humidity 26    
Precipitation  
Precipitation 0.00 in 0.03 in 0.85 in (1954)
Month to date precipitation 0.01 0.43  
Year to date precipitation 0.29 1.17  
Sea Level Pressure  
Sea Level Pressure 29.94 in    
Wind  
Wind Speed 12 mph (SE)    
Max Wind Speed 21 mph    
Max Gust Speed 26 mph    
Visibility 10 miles    
Events      
T = Trace of Precipitation, MM = Missing Value Source: NWS Daily Summary

Daily Weather History Graph

Daily Weather History Graph

Search for Another Location

Airport or City:

Trip Planner

Search our weather history database for the weather conditions in past years. The results will help you decide how hot, cold, wet, or windy it might be!

Date:

Astronomy

Mar. 18, 2015 Rise Set
Actual Time 6:59 AM MDT 7:02 PM MDT
Civil Twilight 6:32 AM MDT 7:29 PM MDT
Nautical Twilight 6:01 AM MDT 8:01 PM MDT
Astronomical Twilight 5:29 AM MDT 8:33 PM MDT
Moon 5:44 AM MDT (3/18) 5:21 PM MDT (3/18)
Length of Visible Light 12h 56m
Length of Day
12h 02m
Waning Crescent, 4% of the Moon is Illuminated
Mar 18
Waning Crescent
Mar 20
New
Mar 27
First Quarter
Apr 4
Full
Apr 11
Last Quarter

Hourly Weather History & Observations

Time (MDT) Temp. Windchill Dew Point Humidity Pressure Visibility Wind Dir Wind Speed Gust Speed Precip Events Conditions
12:53 AM 33.1 °F 21.9 °F 12.0 °F 42% 30.12 in 10.0 mi SSE 18.4 mph - N/A   Clear
1:53 AM 32.0 °F 22.1 °F 12.0 °F 44% 30.10 in 10.0 mi SSE 13.8 mph - N/A   Clear
2:53 AM 32.0 °F 21.6 °F 12.9 °F 45% 30.05 in 10.0 mi SSE 15.0 mph - N/A   Clear
3:53 AM 32.0 °F 21.2 °F 12.0 °F 44% 30.02 in 10.0 mi SSE 16.1 mph - N/A   Clear
4:53 AM 30.9 °F 20.7 °F 12.0 °F 46% 29.99 in 10.0 mi South 13.8 mph - N/A   Clear
5:53 AM 30.9 °F 21.2 °F 14.0 °F 50% 29.98 in 10.0 mi South 12.7 mph - N/A   Clear
6:53 AM 30.9 °F 21.7 °F 15.1 °F 52% 29.99 in 10.0 mi South 11.5 mph - N/A   Clear
7:53 AM 34.0 °F 26.0 °F 16.0 °F 48% 30.00 in 10.0 mi South 10.4 mph - N/A   Clear
8:53 AM 37.9 °F 30.5 °F 19.0 °F 47% 29.98 in 10.0 mi South 11.5 mph - N/A   Clear
9:53 AM 44.1 °F 38.1 °F 21.0 °F 40% 29.97 in 10.0 mi South 11.5 mph - N/A   Clear
10:53 AM 48.9 °F - 24.1 °F 38% 29.96 in 10.0 mi South 12.7 mph - N/A   Clear
11:53 AM 54.0 °F - 30.0 °F 40% 29.93 in 10.0 mi North - - N/A   Clear
12:53 PM 57.0 °F - 30.9 °F 37% 29.91 in 10.0 mi SSE 8.1 mph - N/A   Clear
1:53 PM 60.1 °F - 30.0 °F 32% 29.87 in 10.0 mi SE 8.1 mph - N/A   Partly Cloudy
2:53 PM 62.1 °F - 28.9 °F 29% 29.85 in 10.0 mi SSE 6.9 mph - N/A   Clear
3:53 PM 64.0 °F - 28.9 °F 27% 29.83 in 10.0 mi Variable 4.6 mph - N/A   Partly Cloudy
4:53 PM 64.0 °F - 28.9 °F 27% 29.82 in 10.0 mi East 10.4 mph - N/A   Clear
5:53 PM 62.1 °F - 28.9 °F 29% 29.83 in 10.0 mi East 9.2 mph - N/A   Clear
6:53 PM 55.9 °F - 28.9 °F 36% 29.86 in 10.0 mi ESE 6.9 mph - N/A   Clear
7:53 PM 54.0 °F - 30.0 °F 40% 29.88 in 10.0 mi ESE 9.2 mph - N/A   Clear
8:53 PM 51.1 °F - 30.0 °F 44% 29.90 in 10.0 mi ESE 6.9 mph - N/A   Clear
9:53 PM 50.0 °F - 30.9 °F 48% 29.90 in 10.0 mi SE 6.9 mph - N/A   Clear
10:53 PM 48.9 °F - 32.0 °F 52% 29.88 in 10.0 mi South 4.6 mph - N/A   Mostly Cloudy
11:53 PM 46.0 °F 44.8 °F 32.0 °F 58% 29.88 in 10.0 mi ENE 3.5 mph - N/A   Mostly Cloudy